LUCH-5B

Last updated on Fri Apr 18 2025 00:02:40 GMT+0000 (Coordinated Universal Time)

1 38977U 12061A 25107.62303360 -.00000125 00000+0 00000+0 0 9999 2 38977 9.5591 53.9545 0000821 162.1001 197.9654 1.00273089 45334
UTC large
Height (km)
Speed (km/s)
/
Latitude / Longitude
Inclination (degrees)
Orbital Period (minutes)
Azimuth
Elevation
Range (km)
Doppler Factor

Next 0 passes for location: London (51.5072 / 0.1276)

Sorry there are no passes over London.